Home   Weather   Sion   Past weeks

Flag for Switzerland Past Weather in Sion, Valais, Switzerland — Yesterday and Last 2 Weeks

Now
35 °F

Chilly.


Feels Like: 32 °F
Forecast: 42 / 55 °F
Wind: 3 mph from Southwest

Location: Sion

Current Time: Dec 3, 2016 at 12:43:16 pm

Latest Report: Dec 3, 2016 at 12:00 pm


Visibility: N/A

Pressure: 30.16 "Hg (28.29 "Hg at 514m altitude)

Humidity: 79%

Dew Point: 29 °F

Location of SionLocation

Past Weather in Sion — Graph

°F

Sion Temperature Yesterday

Maximum temperature yesterday: 41 °F (at 3:00 pm)
Minimum temperature yesterday: 26 °F (at 6:00 am)
Average temperature yesterday: 31 °F

High & Low Weather Summary for the Past Weeks

 TemperatureHumidityPressure
High64 °F (Nov 24, 2:00 pm)97% (Nov 18, 10:00 pm)30.68 "Hg (Nov 18, 10:00 pm)
Low24 °F (Dec 3, 7:00 am)38% (Nov 21, 7:00 pm)29.68 "Hg (Nov 21, 3:00 pm)
Average43 °F73%30.08 "Hg
* Reported Nov 18 11:00 am — Dec 3 11:00 am, Sion, Weather by CustomWeather, © 2016

Note: Actual official high and low records may vary slightly from our data, if they occured in-between our weather recording intervals... More about our weather records

Advertising

Sion Weather History for the Previous 24 Hours

Scroll right to see more
 ConditionsComfort  
Time TempWeatherWind HumidityBarometerVisibility
11:00 am
Sat, Dec 3
29 °FChilly.2 mph89%30.19 "HgN/A
10:00 am25 °FCold.1 mph91%30.20 "HgN/A
9:00 am25 °FCold.1 mph92%30.18 "HgN/A
8:00 am24 °FCold.No wind92%30.17 "HgN/A
7:00 am24 °FClear.No wind94%30.17 "Hg16 mi
6:00 am24 °FCold.1 mph92%30.16 "HgN/A
5:00 am26 °FChilly.2 mph91%30.16 "HgN/A
4:00 am26 °FClear.1 mph90%30.16 "Hg19 mi
3:00 am27 °FChilly.2 mph90%30.17 "HgN/A
2:00 am27 °FChilly.1 mph90%30.17 "HgN/A
1:00 am28 °FClear.1 mph90%30.16 "Hg19 mi
12:00 am28 °FChilly.1 mph89%30.17 "HgN/A
11:00 pm
Fri, Dec 2
29 °FChilly.2 mph87%30.15 "HgN/A
10:00 pm29 °FClear.1 mph89%30.16 "Hg16 mi
9:00 pm30 °FChilly.1 mph87%30.15 "HgN/A
8:00 pm31 °FChilly.1 mph87%30.15 "HgN/A
7:00 pm32 °FClear.No wind82%30.14 "Hg16 mi
6:00 pm34 °FChilly.1 mph80%30.13 "HgN/A
5:00 pm37 °FChilly.3 mph75%30.12 "HgN/A
4:00 pm39 °FSunny.1 mph67%30.11 "Hg19 mi
3:00 pm41 °FQuite cool.3 mph51%30.10 "HgN/A
2:00 pm41 °FQuite cool.5 mph52%30.13 "HgN/A
1:00 pm39 °FChilly.5 mph56%30.17 "HgN/A
12:00 pm37 °FChilly.2 mph70%30.20 "HgN/A
Weather by CustomWeather, © 2016

See weather overviewHow to use our weather pages